Weather History for PAWD - November, 2011

Change the Weather History Date:

Monday, November 14, 2011

  Actual Average Record
Temperature  
Mean Temperature 23 °F -  
Max Temperature 28 °F 34 °F - (-1)
Min Temperature 18 °F 25 °F - (-1)
Degree Days  
Heating Degree Days 42    
Moisture  
Dew Point 9 °F    
Average Humidity 57    
Maximum Humidity 68    
Minimum Humidity 43    
Precipitation  
Precipitation 0.00 in - - ()
Sea Level Pressure  
Sea Level Pressure 29.74 in    
Wind  
Wind Speed 8 mph (North)    
Max Wind Speed 12 mph    
Max Gust Speed 17 mph    
Visibility 10 miles    
Events      
Averages and records for this station are not official NWS values.
T = Trace of Precipitation, MM = Missing Value Source: NWS Daily Summary

Daily Weather History Graph

Daily Weather History Graph

Search for Another Location

Airport or City:

Trip Planner

Search our weather history database for the weather conditions in past years. The results will help you decide how hot, cold, wet, or windy it might be!

Date:

Astronomy

Nov. 14, 2011 Rise Set
Actual Time 8:53 AM AKST 4:29 PM AKST
Civil Twilight 8:04 AM AKST 5:18 PM AKST
Nautical Twilight 7:12 AM AKST 6:10 PM AKST
Astronomical Twilight 6:23 AM AKST 6:59 PM AKST
Moon 7:25 PM AKST (11/14) 12:43 PM AKST (11/14)
Length of Visible Light 9h 13m
Length of Day
7h 35m
Waning Gibbous, 85% of the Moon is Illuminated
Nov 14
Waning Gibbous
Nov 18
Last Quarter
Nov 24
New
Dec 2
First Quarter
Dec 10
Full

Hourly Weather History & Observations

Time (AKST) Temp. Windchill Dew Point Humidity Pressure Visibility Wind Dir Wind Speed Gust Speed Precip Events Conditions
12:53 AM 24.1 °F 16.0 °F 6.1 °F 46% 29.73 in 10.0 mi North 6.9 mph - N/A   Clear
1:53 AM 18.0 °F 11.1 °F 7.0 °F 62% 29.73 in 10.0 mi NNW 4.6 mph - N/A   Clear
3:53 AM 19.0 °F 12.3 °F 7.0 °F 59% 29.74 in 10.0 mi North 4.6 mph - N/A   Clear
4:53 AM 19.0 °F 10.0 °F 9.0 °F 65% 29.73 in 10.0 mi North 6.9 mph - N/A   Partly Cloudy
5:53 AM 19.0 °F 9.0 °F 9.0 °F 65% 29.71 in 10.0 mi North 8.1 mph - N/A   Overcast
6:53 AM 19.0 °F 10.0 °F 10.0 °F 68% 29.69 in 10.0 mi North 6.9 mph - N/A   Overcast
7:53 AM 21.9 °F 11.0 °F 9.0 °F 58% 29.69 in 10.0 mi NNW 10.4 mph - N/A   Overcast
8:53 AM 21.9 °F 11.7 °F 9.0 °F 58% 29.69 in 10.0 mi North 9.2 mph - N/A   Overcast
9:53 AM 24.1 °F 13.7 °F 10.0 °F 55% 29.70 in 10.0 mi North 10.4 mph - N/A   Overcast
10:53 AM 26.1 °F 16.8 °F 12.0 °F 55% 29.71 in 10.0 mi North 9.2 mph - N/A   Partly Cloudy
11:53 AM 27.0 °F 20.5 °F 10.9 °F 51% 29.72 in 10.0 mi North 5.8 mph - N/A   Clear
12:53 PM 28.9 °F 22.8 °F 10.9 °F 47% 29.72 in 10.0 mi Variable 5.8 mph - N/A   Clear
1:53 PM 28.9 °F 19.2 °F 9.0 °F 43% 29.73 in 10.0 mi NNE 11.5 mph 17.3 mph N/A   Clear
2:53 PM 27.0 °F 18.7 °F 9.0 °F 47% 29.73 in 10.0 mi North 8.1 mph - N/A   Clear
3:53 PM 25.0 °F 14.8 °F 8.1 °F 49% 29.74 in 10.0 mi North 10.4 mph - N/A   Clear
4:53 PM 24.1 °F 14.4 °F 8.1 °F 51% 29.76 in 10.0 mi North 9.2 mph - N/A   Clear
5:53 PM 23.0 °F 13.9 °F 9.0 °F 55% 29.77 in 10.0 mi North 8.1 mph - N/A   Clear
6:53 PM 21.0 °F 12.4 °F 9.0 °F 60% 29.78 in 10.0 mi North 6.9 mph - N/A   Clear
7:53 PM 21.0 °F 10.6 °F 10.0 °F 63% 29.78 in 10.0 mi North 9.2 mph - N/A   Clear
8:53 PM 19.0 °F 9.0 °F 8.1 °F 62% 29.78 in 10.0 mi North 8.1 mph - N/A   Clear
9:53 PM 19.9 °F 8.6 °F 9.0 °F 62% 29.78 in 10.0 mi NNE 10.4 mph - N/A   Clear
10:53 PM 19.0 °F 6.8 °F 10.0 °F 68% 29.78 in 10.0 mi North 11.5 mph - N/A   Clear
11:53 PM 19.0 °F 7.5 °F 10.0 °F 68% 29.78 in 10.0 mi North 10.4 mph - N/A   Mostly Cloudy